TimeMST,TemperatureF,Dew PointF,Humidity,Sea Level PressureIn,VisibilityMPH,Wind Direction,Wind SpeedMPH,Gust SpeedMPH,PrecipitationIn,Events,Conditions,WindDirDegrees,DateUTC
12:33 AM,50.0,44.6,82,30.17,8.0,Calm,Calm,-,N/A,,Clear,0,2013-12-02 07:33:00
12:43 AM,48.2,44.6,87,30.16,10.0,SSE,3.5,-,N/A,,Clear,160,2013-12-02 07:43:00
12:58 AM,48.4,44.6,87,30.10,10.0,SSE,2.3,-,N/A,,Clear,160,2013-12-02 07:58:00
1:58 AM,47.8,44.4,88,30.09,10.0,SE,5.8,-,N/A,,Clear,130,2013-12-02 08:58:00
2:58 AM,46.8,43.9,90,30.09,10.0,SE,5.8,-,N/A,,Clear,140,2013-12-02 09:58:00
3:58 AM,46.8,42.3,84,30.06,10.0,ESE,6.9,-,N/A,,Clear,120,2013-12-02 10:58:00
4:58 AM,45.3,41.4,86,30.05,10.0,SSE,4.6,-,N/A,,Clear,160,2013-12-02 11:58:00
5:58 AM,44.6,39.9,84,30.06,10.0,SE,8.1,-,N/A,,Clear,130,2013-12-02 12:58:00
6:58 AM,43.9,39.2,84,30.08,10.0,SE,5.8,-,N/A,,Clear,140,2013-12-02 13:58:00
7:58 AM,46.9,40.6,79,30.07,10.0,SE,6.9,-,N/A,,Clear,140,2013-12-02 14:58:00
8:58 AM,52.0,38.7,60,30.09,10.0,South,5.8,-,N/A,,Clear,170,2013-12-02 15:58:00
9:58 AM,56.3,41.4,57,30.07,10.0,SE,3.5,-,N/A,,Clear,130,2013-12-02 16:58:00
10:58 AM,60.6,41.5,49,30.06,10.0,Calm,Calm,-,N/A,,Clear,0,2013-12-02 17:58:00
11:58 AM,62.8,39.7,43,30.02,10.0,North,2.3,-,N/A,,Clear,360,2013-12-02 18:58:00
12:58 PM,65.3,37.6,36,29.98,10.0,Variable,1.2,-,N/A,,Clear,0,2013-12-02 19:58:00
1:58 PM,67.5,33.8,29,29.95,10.0,NNW,4.6,-,N/A,,Clear,330,2013-12-02 20:58:00
2:58 PM,68.4,28.4,22,29.92,10.0,Variable,3.5,-,N/A,,Clear,0,2013-12-02 21:58:00
3:58 PM,68.9,34.9,29,29.91,10.0,NNW,3.5,-,N/A,,Clear,340,2013-12-02 22:58:00
4:58 PM,66.9,35.1,31,29.92,10.0,NW,9.2,-,N/A,,Clear,320,2013-12-02 23:58:00
5:58 PM,61.2,35.6,39,29.92,10.0,WNW,4.6,-,N/A,,Clear,300,2013-12-03 00:58:00
6:58 PM,59.4,37.6,44,29.94,10.0,NNW,2.3,-,N/A,,Clear,330,2013-12-03 01:58:00
7:58 PM,55.4,39.0,54,29.94,10.0,South,2.3,-,N/A,,Clear,180,2013-12-03 02:58:00
8:58 PM,52.0,39.6,63,29.94,10.0,SE,8.1,-,N/A,,Clear,140,2013-12-03 03:58:00
9:58 PM,50.9,39.2,64,29.91,10.0,ESE,5.8,-,N/A,,Clear,110,2013-12-03 04:58:00
10:58 PM,49.3,38.1,65,29.89,10.0,ESE,9.2,-,N/A,,Clear,120,2013-12-03 05:58:00
11:58 PM,48.0,37.2,66,29.90,10.0,SE,9.2,-,N/A,,Clear,130,2013-12-03 06:58:00